[[{"header":{"parameterUnit":"m.s-1","parameterCategory":1,"la1":30.2992,"la2":30.254,"lo1":-89.0895,"lo2":-89.0443,"dy":0.0025,"dx":0.0025,"nx":19,"ny":19,"refTime":"2026-04-03T09:00:00:Z","depth":0,"parameterNumber":2,"parameterNumberName":"U-component_of_WINDS"},"data":[0,0,0,-4.3263,-4.3266,-4.338,-4.338,-4.3539,-4.354,0,0,0,0,0,0,0,0,0,0,0,-4.3239,-4.324,-4.3263,-4.3266,-4.338,-4.338,-4.3538,-4.354,0,0,0,0,0,0,0,0,0,0,0,-4.3238,-4.324,-4.3242,-4.3267,-4.338,-4.338,-4.3538,-4.3447,0,0,0,0,0,0,0,0,0,0,-4.3334,-4.3321,-4.324,-4.3242,-4.3267,-4.338,-4.338,-4.3443,-4.3453,-4.3493,0,-4.3533,0,-4.354,-4.3552,-4.3553,0,0,0,-4.3259,-4.3313,-4.3335,-4.3242,-4.3269,-4.3379,-4.3326,-4.3448,-4.346,-4.3507,-4.3535,-4.3541,-4.3542,-4.3553,-4.3554,-4.3815,-4.3817,0,0,-4.3252,-4.3264,-4.3327,-4.3343,-4.3328,-4.3323,-4.333,-4.3455,-4.3486,-4.3536,-4.3544,-4.3545,-4.3554,-4.3555,-4.3814,-4.3816,0,0,0,-4.324,-4.326,-4.3279,-4.3337,-4.3357,-4.3326,-4.3335,-4.348,-4.3485,-4.3546,-4.3547,-4.3555,-4.3557,-4.3812,-4.3815,-4.3903,0,0,0,-4.3235,-4.3252,-4.3277,-4.3285,-4.3355,-4.342,-4.3357,-4.3477,-4.3491,-4.3546,-4.3555,-4.3559,-4.381,-4.3813,-4.3897,-4.3942,0,0,0,-4.3228,-4.3251,-4.3271,-4.3285,-4.3335,-4.3418,-4.343,-4.348,-4.3492,-4.3553,-4.3559,-4.3809,-4.3813,-4.3891,-4.3933,-4.4013,0,0,0,-4.3224,-4.3348,-4.3273,-4.3412,-4.3334,-4.3473,-4.3429,-4.3532,-4.3595,-4.3556,-4.3811,-4.3814,-4.389,-4.3927,-4.4008,-4.4082,-4.4115,0,0,-4.3386,-4.3368,-4.3448,-4.3385,-4.354,-4.3455,-4.3622,-4.3668,-4.3663,-4.3765,-4.3771,-4.3899,-4.3932,-4.4012,-4.4297,-4.4323,0,0,0,-4.3504,-4.3562,-4.36,-4.3662,-4.3702,-4.3739,-4.3758,-4.3776,-4.3861,-4.3718,-4.395,-4.397,-4.4016,-4.4051,-4.4073,-4.4112,-4.3832,-4.3831,-4.3831,-4.3748,-4.3737,-4.3869,-4.3872,-4.3932,-4.3952,-4.3999,-4.4025,-4.3995,-4.405,-4.4079,-4.4254,-4.4295,-4.4312,-4.4352,-4.4119,-4.412,-4.412,-4.412,-4.3984,-4.4063,-4.4022,-4.4136,-4.4123,-4.4218,-4.4242,-4.4218,-4.4303,-4.423,-4.4271,-4.419,-4.4341,-4.4375,-4.4127,-4.4126,-4.4125,-4.4124,-4.4124,-4.4141,-4.4177,-4.4198,-4.4286,-4.4355,-4.4353,-4.4438,-4.4423,-4.4409,-4.4449,-4.4478,-4.4476,-4.4471,-4.4464,-4.4465,-4.4466,-4.4466,-4.4467,-4.4467,-4.4295,-4.4315,-4.4389,-4.4443,-4.4481,-4.4529,-4.4552,-4.4588,-4.4624,-4.4606,-4.4606,-4.457,-4.4359,-4.4305,-4.4476,-4.4475,-4.4473,-4.4473,-4.4472,-4.4534,-4.4478,-4.4592,-4.4631,-4.4693,-4.4762,-4.4743,-4.4819,-4.4847,-4.4889,-4.4845,-4.4692,-4.4671,-4.4654,-4.4609,-4.4848,-4.4848,-4.4848,-4.4849,-4.4665,-4.4654,-4.4768,-4.483,-4.4889,-4.4884,-4.5012,-4.5032,-4.5043,-4.5059,-4.5023,-4.4963,-4.4946,-4.4935,-4.4911,-4.4868,-4.5169,-4.517,-4.517,-4.4811,-4.4805,-4.4918,-4.4929,-4.4977,-4.5019,-4.5139,-4.5211,-4.5212,-4.5183,-4.5071,-4.5058,-4.4961,-4.493,-4.4896,-4.4859,-4.4781,0,0]},{"header":{"parameterUnit":"m.s-1","parameterCategory":1,"la1":30.2992,"la2":30.254,"lo1":-89.0895,"lo2":-89.0443,"dy":0.0025,"dx":0.0025,"nx":19,"ny":19,"refTime":"2026-04-03T09:00:00:Z","depth":0,"parameterNumber":3,"parameterNumberName":"V-component_of_WINDS"},"data":[0,0,0,1.9682,1.9683,1.9729,1.9729,1.978,1.978,0,0,0,0,0,0,0,0,0,0,0,1.9664,1.9664,1.9682,1.9683,1.9729,1.9729,1.978,1.978,0,0,0,0,0,0,0,0,0,0,0,1.9664,1.9664,1.9665,1.9683,1.9729,1.9729,1.9779,1.9748,0,0,0,0,0,0,0,0,0,0,1.9704,1.9683,1.9664,1.9665,1.9684,1.9729,1.9729,1.9746,1.975,1.9756,0,1.976,0,1.9771,1.9783,1.9783,0,0,0,1.9686,1.968,1.9697,1.9665,1.9684,1.9729,1.9709,1.9748,1.9752,1.976,1.9761,1.9763,1.9772,1.9783,1.9783,1.9813,1.9813,0,0,1.9683,1.9669,1.9695,1.97,1.9693,1.9708,1.9711,1.9751,1.975,1.9761,1.9765,1.9773,1.9783,1.9784,1.9813,1.9813,0,0,0,1.9674,1.9667,1.9684,1.9697,1.9706,1.9709,1.9712,1.9749,1.9755,1.9765,1.9773,1.9784,1.9784,1.9813,1.9813,1.9802,0,0,0,1.9673,1.9662,1.9682,1.9674,1.9705,1.9728,1.9709,1.9752,1.9757,1.9773,1.9784,1.9785,1.9813,1.9813,1.9802,1.9798,0,0,0,1.9663,1.9661,1.9667,1.9673,1.9693,1.9728,1.9737,1.9754,1.9762,1.9783,1.9785,1.9813,1.9813,1.9803,1.9799,1.9803,0,0,0,1.9647,1.9653,1.9666,1.9676,1.9692,1.9721,1.9737,1.9758,1.9774,1.9784,1.9813,1.9813,1.9803,1.9799,1.9804,1.9805,1.9804,0,0,1.9646,1.9652,1.966,1.9673,1.9696,1.9715,1.9736,1.9763,1.9776,1.98,1.9801,1.9802,1.9799,1.9803,1.9805,1.9804,0,0,0,1.9655,1.966,1.9669,1.9686,1.9709,1.9728,1.9754,1.9765,1.9786,1.9786,1.9806,1.9804,1.9807,1.9808,1.9808,1.9812,1.9813,1.9813,1.9813,1.9632,1.9653,1.9667,1.9694,1.971,1.9739,1.9754,1.9773,1.9785,1.979,1.9797,1.9796,1.9797,1.9796,1.9801,1.9799,1.9799,1.9799,1.9799,1.9634,1.9645,1.9667,1.9688,1.971,1.9728,1.9757,1.9766,1.9786,1.9791,1.9795,1.9799,1.9795,1.98,1.9798,1.9799,1.9799,1.9799,1.9799,1.9621,1.963,1.9646,1.9675,1.9695,1.9722,1.9741,1.9759,1.9776,1.978,1.9791,1.9791,1.9794,1.9784,1.9784,1.9784,1.9784,1.9784,1.9784,1.9602,1.962,1.9635,1.9663,1.9679,1.9701,1.9733,1.9748,1.9769,1.9781,1.9781,1.9794,1.9791,1.979,1.9784,1.9784,1.9784,1.9784,1.9784,1.9595,1.9601,1.9624,1.964,1.9677,1.9697,1.9721,1.9751,1.9766,1.9776,1.979,1.9785,1.9791,1.9791,1.9791,1.9785,1.9785,1.9785,1.9785,1.9585,1.9591,1.9621,1.9646,1.9672,1.9698,1.9724,1.975,1.9778,1.9789,1.9792,1.9793,1.9793,1.9799,1.98,1.98,1.9796,1.9796,1.9796,1.9582,1.9593,1.9612,1.9642,1.9673,1.9699,1.9726,1.9752,1.9784,1.9797,1.9798,1.9797,1.9799,1.9798,1.9809,1.9809,1.9809,0,0]}]]